Weather in Ngerulmud

Palau     7°30′01″N   134°37′26″E
temp.,
°C
wind,
m/s
gust,
m/s
humid.,
%
clouds,
%
prec.,
mm/h
press.,
hPa
HPBL,
m
26 february, fri
fri2600:00+27e4684100 1.4 1007470
03:00+27ene4685100 5.1 1006337
06:00+27e588391 6.8 1007445
09:00+27e688396 12.8 1008525
12:00+28e6882100 9.7 1007582
15:00+28e4681100 18.9 1006435
18:00+27e3680100 8.6 1008359
21:00+27e3681100 11.5 1009426
27 february, sat
sat2700:00+27e5783100 0.1 1009508
03:00+27ene4785100 0.3 1008479
06:00+27ene5885100 0.0 1008598
09:00+28e577889 0.0 1010729
12:00+29ene56734 0.0 1009938
15:00+29e56742 0.0 1007967
18:00+28e578022 0.0 1007783
21:00+27ene578261 0.0 1009719
28 february, sun
sun2800:00+27ene4781100 0.0 1009664
03:00+27ene5882100 0.1 1008678
06:00+28ene6980100 0.0 1009709
09:00+29ene6978100 0.1 1011918
12:00+29ene6874100 0.1 1010899
15:00+29ene687599 0.3 1008968
18:00+28ene698110 0.3 1008880
21:00+28ene69835 0.3 1010831
1 march, mon
mon100:00+27ene7108383 0.1 1009852
03:00+27ene7107985 0.1 1008961
06:00+27ene7107856 0.1 10091056
09:00+29ene697428 0.2 10111144
12:00+29ene69690 0.0 10101063
15:00+29ne68717 0.0 10091114
18:00+27ne697740 0.0 10091003
21:00+27ene697735 0.0 10111005
2 march, tue
tue200:00+27ne578017 0.0 1011693
03:00+26ne698424 2.5 1009625
06:00+26ne58840 1.6 1009608
09:00+28ne79781 4.9 1011951
12:00+28ene79826 1.1 1010906
15:00+28ne687814 1.7 1008963
18:00+27ne68820 0.4 1009761
21:00+27ne7108428 2.9 1010731